Latest Weather Observations for Cummins Airport

IDS60801

Issued at 11:35 am CDT Saturday 25 October 2014 (issued every 30 minutes, with the page automatically refreshed every 10 minutes)

About weather observations | Map of weather stations | Latest weather observations for SA | Other Formats
Station Details ID: 018217 Name: CUMMINS AERO Lat: -34.25 Lon: 135.71 Height: 60.11 m
Data from the previous 72 hours. | See also: Recent months at Cummins Airport
Date/Time
CDT
Temp
°C
App
Temp
°C
Dew
Point
Rel
Hum
%
Delta-T
°C
Wind Press
QNH
hPa
Press
MSL
hPa
Rain
since 9 am
mm
Dir
 
Spd
km/h
Gust
km/h
Spd
kts
Gust
kts
25/11:30am 21.2 19.6 11.5 54 5.4 SSW 11 15 6 8 1017.8 1017.7 0.0
25/11:00am 20.1 19.0 11.8 59 4.6 W 9 19 5 10 1018.3 1018.2 0.0
25/10:30am 19.5 18.0 11.8 61 4.3 SW 11 15 6 8 1018.3 1018.2 0.0
25/10:00am 18.5 17.0 12.0 66 3.6 W 11 15 6 8 1018.3 1018.2 0.0
25/09:30am 17.5 16.3 11.5 68 3.3 SW 9 15 5 8 1018.3 1018.2 0.0
25/09:00am 16.6 15.4 11.7 73 2.7 SSW 9 19 5 10 1018.4 1018.3 0.0
25/08:30am 15.9 14.8 11.9 77 2.2 S 9 11 5 6 1018.5 1018.4 0.0
25/08:00am 15.3 14.4 12.6 84 1.5 S 9 11 5 6 1018.6 1018.5 0.0
25/07:30am 14.4 13.6 13.0 91 0.8 W 9 11 5 6 1018.8 1018.7 0.0
25/07:00am 14.1 13.4 13.1 94 0.6 W 9 13 5 7 1018.8 1018.7 0.0
25/06:30am 13.9 13.8 13.4 97 0.3 SSW 6 7 3 4 1018.4 1018.3 0.0
25/06:00am 13.6 13.5 13.4 99 0.1 SSW 6 9 3 5 1017.9 1017.8 0.0
25/05:30am 13.4 13.1 13.2 99 0.1 WSW 7 9 4 5 1017.6 1017.5 0.0
25/05:00am 13.0 12.5 12.8 99 0.1 S 7 9 4 5 1017.1 1017.0 0.0
25/04:30am 12.5 11.5 12.3 99 0.1 S 9 11 5 6 1016.8 1016.7 0.0
25/04:00am 12.2 10.4 12.0 99 0.1 SSW 13 19 7 10 1016.5 1016.4 0.0
25/03:30am 9.9 7.7 9.3 96 0.3 S 11 13 6 7 1016.3 1016.2 0.0
25/03:00am 9.5 9.1 8.4 93 0.5 CALM 0 0 0 0 1016.1 1016.0 0.0
25/02:30am 10.0 8.7 9.1 94 0.4 SSE 6 7 3 4 1015.9 1015.8 0.0
25/02:00am 10.9 9.6 10.1 95 0.4 S 7 9 4 5 1016.3 1016.2 0.0
25/01:30am 11.3 9.5 10.7 96 0.3 SSW 11 13 6 7 1016.6 1016.5 0.0
25/01:00am 11.9 10.2 11.3 96 0.3 S 11 13 6 7 1016.9 1016.8 0.0
25/12:30am 11.8 10.0 10.9 94 0.5 S 11 13 6 7 1017.0 1016.9 0.0
25/12:00am 11.7 10.1 10.3 91 0.7 SSW 9 11 5 6 1017.0 1016.9 0.0
 
Date/Time
CDT
Temp
°C
App
Temp
°C
Dew
Point
Rel
Hum
%
Delta-T
°C
Wind Press
QNH
hPa
Press
MSL
hPa
Rain
since 9 am
mm
Dir
 
Spd
km/h
Gust
km/h
Spd
kts
Gust
kts
24/11:30pm 12.5 11.5 10.9 90 0.8 S 7 11 4 6 1017.2 1017.1 0.0
24/11:00pm 13.4 11.4 11.6 89 1.0 S 13 15 7 8 1017.0 1016.9 0.0
24/10:30pm 14.1 12.7 12.1 88 1.1 S 11 15 6 8 1016.9 1016.8 0.0
24/10:00pm 14.7 13.2 12.0 84 1.5 SSW 11 15 6 8 1016.6 1016.5 0.0
24/09:30pm 15.6 14.5 12.0 79 2.0 S 9 11 5 6 1016.3 1016.2 0.0
24/09:00pm 17.0 15.3 11.3 69 3.1 SSW 11 15 6 8 1015.9 1015.8 0.0
24/08:30pm 18.3 16.4 11.8 66 3.6 S 13 17 7 9 1015.3 1015.2 0.0
24/08:00pm 19.5 16.8 11.8 61 4.3 SSW 17 20 9 11 1015.0 1014.9 0.0
24/07:30pm 21.2 18.5 11.8 55 5.3 SSW 17 22 9 12 1014.5 1014.4 0.0
24/07:00pm 22.2 18.7 11.0 49 6.2 SSW 20 28 11 15 1014.1 1014.0 0.0
24/06:30pm 24.0 19.8 11.0 44 7.3 SSW 24 32 13 17 1013.7 1013.6 0.0
24/06:00pm 26.0 21.9 11.4 40 8.3 SSW 24 32 13 17 1013.4 1013.3 0.0
24/05:30pm 25.6 21.3 10.6 39 8.4 SSW 24 32 13 17 1013.1 1013.0 0.0
24/05:00pm 27.6 22.4 10.3 34 9.7 SSW 28 35 15 19 1012.6 1012.5 0.0
24/04:30pm 29.3 25.0 9.4 29 11.1 SSW 22 35 12 19 1012.2 1012.1 0.0
24/04:00pm 30.6 26.9 6.5 22 12.9 SW 15 26 8 14 1012.3 1012.2 0.0
24/03:30pm 30.6 26.4 8.3 25 12.3 WSW 20 28 11 15 1012.5 1012.4 0.0
24/03:00pm 29.9 25.0 9.9 29 11.3 SSW 26 35 14 19 1013.0 1012.9 0.0
24/02:30pm 31.1 26.2 9.9 27 12.1 WSW 26 37 14 20 1012.9 1012.8 0.0
24/02:00pm 32.1 28.4 6.3 20 13.9 WSW 15 22 8 12 1012.5 1012.4 0.0
24/01:30pm 31.6 27.6 6.6 21 13.5 WSW 17 22 9 12 1012.9 1012.8 0.0
24/01:00pm 31.5 27.6 7.2 22 13.3 W 17 22 9 12 1013.3 1013.2 0.0
24/12:30pm 31.0 28.0 7.5 23 12.8 WSW 13 20 7 11 1013.4 1013.3 0.0
24/12:00pm 29.8 28.0 7.1 24 12.2 W 6 13 3 7 1013.9 1013.8 0.0
24/11:30am 28.9 25.7 6.9 25 11.8 WSW 13 24 7 13 1014.2 1014.1 0.0
24/11:00am 28.2 24.5 6.3 25 11.6 W 15 20 8 11 1014.3 1014.2 0.0
24/10:30am 27.2 24.4 8.6 31 10.1 W 13 19 7 10 1014.3 1014.2 0.0
24/10:00am 25.8 23.9 9.2 35 9.1 W 9 15 5 8 1014.2 1014.1 0.0
24/09:30am 24.1 22.4 10.0 41 7.8 NW 9 15 5 8 1014.4 1014.3 0.0
24/09:00am 22.0 20.5 10.5 48 6.3 NNW 9 15 5 8 1014.2 1014.1 0.0
24/08:30am 19.5 18.7 11.0 58 4.6 NNE 6 9 3 5 1014.3 1014.2 0.0
24/08:00am 17.5 17.1 11.1 66 3.5 E 4 7 2 4 1014.0 1013.9 0.0
24/07:30am 13.2 12.1 10.7 85 1.3 ESE 7 9 4 5 1014.1 1014.0 0.0
24/07:00am 10.6 10.4 8.9 89 0.8 CALM 0 0 0 0 1013.8 1013.7 0.0
24/06:30am 11.5 11.4 9.4 87 1.1 CALM 0 0 0 0 1013.6 1013.5 0.0
24/06:00am 12.0 10.3 9.7 86 1.2 SW 9 11 5 6 1012.8 1012.7 0.0
24/05:30am 12.7 12.0 10.1 84 1.3 N 4 7 2 4 1012.0 1011.9 0.0
24/05:00am 13.1 13.3 10.6 85 1.3 CALM 0 0 0 0 1012.0 1011.9 0.0
24/04:30am 13.0 11.9 10.7 86 1.2 E 7 9 4 5 1012.0 1011.9 0.0
24/04:00am 13.6 13.9 10.8 83 1.5 CALM 0 0 0 0 1012.3 1012.2 0.0
24/03:30am 14.2 12.9 11.2 82 1.6 N 9 11 5 6 1012.6 1012.5 0.0
24/03:00am 15.5 14.6 11.5 77 2.2 NE 7 9 4 5 1012.5 1012.4 0.0
24/02:30am 16.3 14.9 12.1 76 2.3 NE 11 15 6 8 1012.7 1012.6 0.0
24/02:00am 16.3 13.7 12.1 76 2.3 NNE 17 24 9 13 1013.1 1013.0 0.0
24/01:30am 16.6 14.3 11.9 74 2.6 NE 15 20 8 11 1013.4 1013.3 0.0
24/01:00am 17.0 14.3 11.7 71 2.9 ENE 17 22 9 12 1013.3 1013.2 0.0
24/12:30am 16.9 14.9 11.6 71 2.9 ENE 13 20 7 11 1013.7 1013.6 0.0
24/12:00am 16.2 15.1 11.8 75 2.4 E 9 13 5 7 1014.1 1014.0 0.0
 
Date/Time
CDT
Temp
°C
App
Temp
°C
Dew
Point
Rel
Hum
%
Delta-T
°C
Wind Press
QNH
hPa
Press
MSL
hPa
Rain
since 9 am
mm
Dir
 
Spd
km/h
Gust
km/h
Spd
kts
Gust
kts
23/11:30pm 15.9 14.7 11.7 76 2.3 NE 9 11 5 6 1014.9 1014.8 0.0
23/11:00pm 16.3 14.4 11.7 74 2.5 NNE 13 17 7 9 1015.5 1015.4 0.0
23/10:30pm 17.0 16.1 11.3 69 3.1 ENE 7 11 4 6 1015.5 1015.4 0.0
23/10:00pm 16.7 15.8 11.4 71 2.9 ENE 7 13 4 7 1015.4 1015.3 0.0
23/09:30pm 16.8 15.5 11.3 70 3.0 ENE 9 13 5 7 1015.4 1015.3 0.0
23/09:00pm 16.9 15.6 11.2 69 3.1 E 9 11 5 6 1015.1 1015.0 0.0
23/08:30pm 17.9 16.2 11.2 65 3.6 E 11 13 6 7 1015.0 1014.9 0.0
23/08:00pm 18.9 17.3 11.5 62 4.1 ESE 11 13 6 7 1014.9 1014.8 0.0
23/07:30pm 20.3 18.7 11.5 57 4.9 SE 11 15 6 8 1014.9 1014.8 0.0
23/07:00pm 21.7 19.7 11.4 52 5.7 SSE 13 17 7 9 1015.0 1014.9 0.0
23/06:30pm 22.9 20.8 11.3 48 6.5 S 13 20 7 11 1015.1 1015.0 0.0
23/06:00pm 24.0 21.7 11.7 46 7.0 S 15 20 8 11 1014.9 1014.8 0.0
23/05:30pm 25.1 21.9 11.3 42 7.8 S 19 26 10 14 1014.7 1014.6 0.0
23/05:00pm 26.8 24.3 10.9 37 9.0 SSE 15 20 8 11 1014.3 1014.2 0.0
23/04:30pm 25.8 22.4 10.4 38 8.6 SE 19 26 10 14 1014.4 1014.3 0.0
23/04:00pm 26.0 23.1 11.0 39 8.5 SSW 17 26 9 14 1014.5 1014.4 0.0
23/03:30pm 26.8 25.3 9.2 33 9.7 S 7 15 4 8 1014.6 1014.5 0.0
23/03:00pm 25.9 24.3 8.8 34 9.3 SSW 7 11 4 6 1015.1 1015.0 0.0
23/02:30pm 26.0 24.2 9.4 35 9.1 SSE 9 19 5 10 1015.2 1015.1 0.0
23/02:00pm 24.6 23.7 10.5 41 7.8 E 6 13 3 7 1015.6 1015.5 0.0
23/01:30pm 23.3 21.4 10.4 44 7.1 E 11 19 6 10 1016.1 1016.0 0.0
23/01:00pm 22.8 21.0 10.9 47 6.6 ESE 11 17 6 9 1016.5 1016.4 0.0
23/12:30pm 22.1 20.4 11.2 50 6.1 SE 11 20 6 11 1017.2 1017.1 0.0
23/12:00pm 20.5 18.4 11.2 55 5.1 E 13 24 7 13 1017.5 1017.4 0.0
23/11:30am 20.3 16.9 11.2 56 5.0 ESE 20 22 11 12 1017.8 1017.7 0.0
23/11:00am 18.5 16.4 11.1 62 4.0 ESE 13 22 7 12 1018.3 1018.2 0.0
23/10:30am 18.7 16.3 11.5 63 3.9 E 15 22 8 12 1018.7 1018.6 0.0
23/10:00am 17.3 15.0 11.6 69 3.1 ESE 15 22 8 12 1018.6 1018.5 0.0
23/09:30am 16.6 13.5 11.5 72 2.8 ESE 19 26 10 14 1018.8 1018.7 0.0
23/09:00am 15.6 12.8 11.4 76 2.3 ESE 17 20 9 11 1018.8 1018.7 0.0
23/08:30am 15.2 13.6 11.4 78 2.0 E 11 17 6 9 1019.0 1018.9 0.0
23/08:00am 14.7 12.3 11.3 80 1.8 ESE 15 20 8 11 1018.8 1018.7 0.0
23/07:30am 14.5 11.7 11.5 82 1.6 SE 17 24 9 13 1018.9 1018.8 0.0
23/07:00am 14.2 11.7 11.2 82 1.6 ESE 15 22 8 12 1019.1 1019.0 0.0
23/06:30am 14.2 12.2 11.4 83 1.5 ESE 13 20 7 11 1018.9 1018.8 0.0
23/06:00am 14.2 11.8 11.4 83 1.5 ESE 15 19 8 10 1018.9 1018.8 0.0
23/05:30am 14.0 11.5 11.2 83 1.5 SE 15 20 8 11 1018.9 1018.8 0.0
23/05:00am 14.3 11.2 11.5 83 1.5 SE 19 26 10 14 1018.4 1018.3 0.0
23/04:30am 14.5 11.7 11.5 82 1.6 ESE 17 24 9 13 1018.6 1018.5 0.0
23/04:00am 14.5 11.7 11.3 81 1.7 SE 17 24 9 13 1019.1 1019.0 0.0
23/03:30am 14.5 11.4 11.5 82 1.6 SE 19 24 10 13 1019.5 1019.4 0.0
23/03:00am 14.7 11.6 11.7 82 1.6 SSE 19 26 10 14 1019.8 1019.7 0.0
23/02:30am 14.7 11.4 11.5 81 1.7 SSE 20 26 11 14 1019.8 1019.7 0.0
23/02:00am 14.9 11.9 11.9 82 1.6 SE 19 24 10 13 1020.0 1019.9 0.0
23/01:30am 14.9 11.9 11.9 82 1.6 SSE 19 26 10 14 1020.3 1020.2 0.0
23/01:00am 14.7 11.1 11.8 83 1.6 SE 22 28 12 15 1020.7 1020.7 0.0
23/12:30am 14.9 11.9 12.0 83 1.6 SE 19 28 10 15 1021.0 1021.0 0.0
23/12:00am 14.7 11.8 12.2 85 1.4 SSE 19 28 10 15 1021.2 1021.2 0.0
 
Date/Time
CDT
Temp
°C
App
Temp
°C
Dew
Point
Rel
Hum
%
Delta-T
°C
Wind Press
QNH
hPa
Press
MSL
hPa
Rain
since 9 am
mm
Dir
 
Spd
km/h
Gust
km/h
Spd
kts
Gust
kts
22/11:30pm 14.5 11.3 12.0 85 1.3 S 20 30 11 16 1021.3 1021.3 0.0
22/11:00pm 14.5 11.5 12.0 85 1.4 SSE 19 26 10 14 1021.2 1021.2 0.0
22/10:30pm 14.4 11.4 11.9 85 1.3 SSE 19 28 10 15 1021.4 1021.4 0.0
22/10:00pm 14.3 11.1 11.8 85 1.3 SSE 20 28 11 15 1021.2 1021.2 0.0
22/09:30pm 14.4 11.2 11.9 85 1.3 SSE 20 30 11 16 1021.1 1021.1 0.0
22/09:00pm 14.0 11.3 11.7 86 1.2 S 17 30 9 16 1021.2 1021.2 0.0
22/08:30pm 14.1 11.7 11.4 84 1.4 SSE 15 20 8 11 1020.8 1020.8 0.0
22/08:00pm 14.7 11.4 11.5 81 1.7 S 20 26 11 14 1020.6 1020.6 0.0
22/07:30pm 15.7 11.7 11.7 77 2.2 S 24 30 13 16 1020.4 1020.4 0.0
22/07:00pm 17.4 13.8 11.7 69 3.1 S 22 28 12 15 1020.3 1020.2 0.0
22/06:30pm 18.6 14.3 11.9 65 3.7 S 26 33 14 18 1020.0 1019.9 0.0
22/06:00pm 20.1 16.1 11.8 59 4.6 S 24 35 13 19 1019.9 1019.8 0.0
22/05:30pm 21.8 17.7 11.5 52 5.7 S 24 32 13 17 1019.6 1019.5 0.0
22/05:00pm 22.7 18.0 10.5 46 6.7 S 26 35 14 19 1019.4 1019.3 0.0
22/04:30pm 23.7 19.3 10.4 43 7.3 S 24 35 13 19 1019.4 1019.3 0.0
22/04:00pm 24.2 20.0 11.2 44 7.3 SSE 24 35 13 19 1019.2 1019.1 0.0
22/03:30pm 24.5 19.8 10.8 42 7.6 S 26 35 14 19 1019.3 1019.2 0.0
22/03:00pm 25.8 21.9 10.8 39 8.4 S 22 33 12 18 1019.3 1019.2 0.0
22/02:30pm 24.9 20.2 10.7 40 7.9 S 26 32 14 17 1019.5 1019.4 0.0
22/02:00pm 25.1 20.6 11.3 42 7.8 SSW 26 39 14 21 1019.7 1019.6 0.0
22/01:30pm 23.5 19.5 11.9 48 6.6 SSW 24 35 13 19 1019.9 1019.8 0.0
22/01:00pm 23.2 19.7 12.2 50 6.3 SSW 22 33 12 18 1020.3 1020.2 0.0
22/12:30pm 22.6 19.2 12.5 53 5.7 SSW 22 32 12 17 1020.5 1020.5 0.0
22/12:00pm 22.1 19.1 12.6 55 5.4 SSW 20 30 11 16 1020.4 1020.4 0.0

Other Formats:

Comma delimited format used in spreadsheet applications
http://www.bom.gov.au/fwo/IDS60801/IDS60801.95663.axf

JavaScript Object Notation format (JSON) in row-major order
http://www.bom.gov.au/fwo/IDS60801/IDS60801.95663.json